• In Czech Republic
  • List of Countries
  • For 7 days
  • Water Temperature
  • Satellite Maps
  • Weather Map
  • Weather Widgets
  • user-avatar
    Login

    Hourly Weather San Juan

    Today, 17 August, Friday

    Time Temperature Precipitation Wind Pressure Humidity
    00:00 +18°C° 0 mm 2 mps 706 mmHg 20%
    01:00 +17°C° 0 mm 2 mps 706 mmHg 21%
    02:00 +17°C° 0 mm 2 mps 706 mmHg 22%
    03:00 +17°C° 0 mm 2 mps 706 mmHg 22%
    04:00 +17°C° 0 mm 2 mps 706 mmHg 22%
    05:00 +17°C° 0 mm 2 mps 706 mmHg 22%
    06:00 +17°C° 0 mm 2 mps 706 mmHg 21%
    07:00 +18°C° 0 mm 2 mps 706 mmHg 21%
    08:00 +20°C° 0 mm 2 mps 706 mmHg 18%
    09:00 +24°C° 0 mm 2 mps 706 mmHg 16%
    10:00 +26°C° 0 mm 1 mps 706 mmHg 13%
    11:00 +27°C° 0 mm 2 mps 705 mmHg 12%
    12:00 +28°C° 0 mm 2 mps 705 mmHg 11%
    13:00 +29°C° 0 mm 2 mps 704 mmHg 10%
    14:00 +29°C° 0 mm 2 mps 704 mmHg 10%
    15:00 +29°C° 0 mm 2 mps 704 mmHg 10%
    16:00 +28°C° 0 mm 2 mps 704 mmHg 11%
    17:00 +26°C° 0 mm 2 mps 704 mmHg 14%
    18:00 +24°C° 0 mm 1 mps 704 mmHg 17%
    19:00 +22°C° 0 mm 1 mps 704 mmHg 20%
    20:00 +21°C° 0 mm 1 mps 704 mmHg 21%
    21:00 +21°C° 0 mm 1 mps 704 mmHg 22%
    22:00 +20°C° 0 mm 1 mps 704 mmHg 22%
    23:00 +20°C° 0 mm 1 mps 704 mmHg 23%

    Tomorrow, 18 August, Saturday

    Time Temperature Precipitation Wind Pressure Humidity
    00:00 +18°C° 0 mm 2 mps 704 mmHg 23%
    01:00 +18°C° 0 mm 2 mps 704 mmHg 23%
    02:00 +17°C° 0 mm 2 mps 704 mmHg 25%
    03:00 +17°C° 0 mm 3 mps 704 mmHg 27%
    04:00 +16°C° 0 mm 3 mps 703 mmHg 29%
    05:00 +15°C° 0 mm 4 mps 704 mmHg 33%
    06:00 +15°C° 0 mm 4 mps 705 mmHg 37%
    07:00 +15°C° 0 mm 5 mps 706 mmHg 41%
    08:00 +15°C° 0 mm 6 mps 707 mmHg 41%
    09:00 +16°C° 0 mm 8 mps 707 mmHg 41%
    10:00 +16°C° 0 mm 10 mps 708 mmHg 41%
    11:00 +16°C° 0 mm 10 mps 708 mmHg 40%
    12:00 +14°C° 0 mm 10 mps 708 mmHg 39%
    13:00 +14°C° 0 mm 10 mps 708 mmHg 38%
    14:00 +13°C° 0 mm 9 mps 708 mmHg 37%
    15:00 +12°C° 0 mm 9 mps 709 mmHg 37%
    16:00 +11°C° 0 mm 8 mps 709 mmHg 37%
    17:00 +10°C° 0 mm 8 mps 710 mmHg 37%
    18:00 +9°C° 0 mm 7 mps 711 mmHg 38%
    19:00 +8°C° 0 mm 7 mps 712 mmHg 39%
    20:00 +7°C° 0 mm 6 mps 713 mmHg 36%
    21:00 +7°C° 0 mm 6 mps 714 mmHg 33%
    22:00 +6°C° 0 mm 5 mps 714 mmHg 30%
    23:00 +6°C° 0 mm 5 mps 715 mmHg 28%

    Day after tomorrow, 19 August, Sunday

    Time Temperature Precipitation Wind Pressure Humidity
    00:00 +6°C° 0 mm 5 mps 715 mmHg 26%
    01:00 +5°C° 0 mm 5 mps 715 mmHg 24%
    02:00 +5°C° 0 mm 5 mps 716 mmHg 26%
    03:00 +4°C° 0 mm 4 mps 716 mmHg 27%
    04:00 +4°C° 0 mm 4 mps 716 mmHg 28%
    05:00 +4°C° 0 mm 4 mps 717 mmHg 28%
    06:00 +4°C° 0 mm 4 mps 718 mmHg 29%
    07:00 +4°C° 0 mm 3 mps 718 mmHg 30%
    08:00 +6°C° 0 mm 4 mps 719 mmHg 29%
    09:00 +7°C° 0 mm 4 mps 719 mmHg 29%
    10:00 +8°C° 0 mm 5 mps 719 mmHg 29%
    11:00 +8°C° 0 mm 5 mps 718 mmHg 29%
    12:00 +9°C° 0 mm 5 mps 717 mmHg 28%
    13:00 +10°C° 0 mm 4 mps 716 mmHg 28%
    14:00 +10°C° 0 mm 4 mps 716 mmHg 28%
    15:00 +10°C° 0 mm 4 mps 715 mmHg 29%
    16:00 +10°C° 0 mm 4 mps 715 mmHg 30%
    17:00 +8°C° 0 mm 4 mps 716 mmHg 32%
    18:00 +9°C° 0 mm 3 mps 717 mmHg 34%
    19:00 +8°C° 0 mm 3 mps 717 mmHg 37%
    20:00 +7°C° 0 mm 2 mps 718 mmHg 38%
    21:00 +7°C° 0 mm 2 mps 718 mmHg 40%
    22:00 +7°C° 0 mm 1 mps 718 mmHg 41%
    23:00 +7°C° 0 mm 1 mps 717 mmHg 43%

    20 August, Monday

    Time Temperature Precipitation Wind Pressure Humidity
    00:00 +6°C° 0 mm 1 mps 717 mmHg 45%
    01:00 +6°C° 0 mm 1 mps 716 mmHg 46%
    02:00 +5°C° 0 mm 1 mps 715 mmHg 47%
    03:00 +5°C° 0 mm 1 mps 715 mmHg 48%
    04:00 +5°C° 0 mm 1 mps 714 mmHg 49%
    05:00 +5°C° 0 mm 1 mps 714 mmHg 47%
    06:00 +6°C° 0 mm 1 mps 715 mmHg 45%
    07:00 +6°C° 0 mm 1 mps 715 mmHg 42%
    08:00 +8°C° 0 mm 1 mps 714 mmHg 38%
    09:00 +9°C° 0 mm 1 mps 714 mmHg 33%
    10:00 +11°C° 0 mm 1 mps 713 mmHg 29%
    11:00 +12°C° 0 mm 2 mps 712 mmHg 26%
    12:00 +13°C° 0 mm 2 mps 712 mmHg 24%
    13:00 +14°C° 0 mm 2 mps 711 mmHg 21%
    14:00 +14°C° 0 mm 2 mps 710 mmHg 20%
    15:00 +14°C° 0 mm 2 mps 710 mmHg 20%
    16:00 +15°C° 0 mm 2 mps 710 mmHg 19%
    17:00 +14°C° 0 mm 2 mps 710 mmHg 21%
    18:00 +13°C° 0 mm 2 mps 710 mmHg 23%
    19:00 +12°C° 0 mm 2 mps 711 mmHg 24%
    20:00 +10°C° 0 mm 2 mps 711 mmHg 25%
    21:00 +10°C° 0 mm 2 mps 710 mmHg 26%
    22:00 +9°C° 0 mm 3 mps 710 mmHg 26%
    23:00 +9°C° 0 mm 3 mps 710 mmHg 27%

    21 August, Tuesday

    Time Temperature Precipitation Wind Pressure Humidity
    00:00 +9°C° 0 mm 3 mps 709 mmHg 28%
    01:00 +9°C° 0 mm 3 mps 709 mmHg 29%
    02:00 +8°C° 0 mm 3 mps 709 mmHg 30%
    03:00 +8°C° 0 mm 3 mps 708 mmHg 30%
    04:00 +7°C° 0 mm 2 mps 708 mmHg 31%
    05:00 +8°C° 0 mm 2 mps 708 mmHg 28%
    06:00 +9°C° 0 mm 2 mps 709 mmHg 26%
    07:00 +9°C° 0 mm 2 mps 709 mmHg 23%
    08:00 +13°C° 0 mm 2 mps 709 mmHg 20%
    09:00 +15°C° 0 mm 2 mps 709 mmHg 17%
    10:00 +18°C° 0 mm 2 mps 709 mmHg 13%
    11:00 +19°C° 0 mm 2 mps 708 mmHg 11%
    12:00 +20°C° 0 mm 2 mps 708 mmHg 10%
    13:00 +23°C° 0 mm 2 mps 707 mmHg 8%
    14:00 +23°C° 0 mm 2 mps 707 mmHg 8%
    15:00 +23°C° 0 mm 2 mps 707 mmHg 8%
    16:00 +23°C° 0 mm 1 mps 706 mmHg 8%
    17:00 +20°C° 0 mm 1 mps 707 mmHg 10%
    18:00 +18°C° 0 mm 1 mps 707 mmHg 12%
    19:00 +15°C° 0 mm 1 mps 707 mmHg 15%
    20:00 +15°C° 0 mm 1 mps 707 mmHg 15%
    21:00 +14°C° 0 mm 1 mps 707 mmHg 15%
    22:00 +14°C° 0 mm 1 mps 708 mmHg 15%
    23:00 +14°C° 0 mm 2 mps 707 mmHg 15%

    22 August, Wednesday

    Time Temperature Precipitation Wind Pressure Humidity
    00:00 +13°C° 0 mm 2 mps 707 mmHg 16%
    01:00 +13°C° 0 mm 2 mps 706 mmHg 17%
    02:00 +13°C° 0 mm 2 mps 706 mmHg 18%
    03:00 +12°C° 0 mm 2 mps 705 mmHg 19%
    04:00 +12°C° 0 mm 2 mps 705 mmHg 19%
    05:00 +13°C° 0 mm 2 mps 705 mmHg 19%
    06:00 +13°C° 0 mm 2 mps 705 mmHg 18%
    07:00 +14°C° 0 mm 2 mps 705 mmHg 18%
    08:00 +17°C° 0 mm 3 mps 705 mmHg 15%
    09:00 +19°C° 0 mm 3 mps 704 mmHg 13%
    10:00 +22°C° 0 mm 3 mps 704 mmHg 10%
    11:00 +23°C° 0 mm 4 mps 703 mmHg 9%
    12:00 +26°C° 0 mm 5 mps 702 mmHg 8%
    13:00 +27°C° 0 mm 6 mps 701 mmHg 6%
    14:00 +27°C° 0 mm 6 mps 700 mmHg 7%
    15:00 +27°C° 0 mm 6 mps 700 mmHg 7%
    16:00 +27°C° 0 mm 6 mps 699 mmHg 7%
    17:00 +24°C° 0 mm 6 mps 699 mmHg 10%
    18:00 +22°C° 0 mm 5 mps 699 mmHg 12%
    19:00 +20°C° 0 mm 4 mps 699 mmHg 15%
    20:00 +19°C° 0 mm 4 mps 699 mmHg 16%
    21:00 +19°C° 0 mm 4 mps 699 mmHg 18%
    22:00 +18°C° 0 mm 4 mps 699 mmHg 19%
    23:00 +17°C° 0 mm 5 mps 698 mmHg 20%
    Show more